Wind_Speed
12 11 9 7 6 4 3 1 1 4 5 6 7 7 7 6 6 6 7 8 9 10 10 9 8 9 9 8 8 8 8 8 8 8 8 8 8 8 8 8 8 8 8 7
12 11 9 8 6 5 3 3 3 5 6 7 8 7 6 6 7 7 7 7 8 9 8 7 7 8 8 8 7 7 8 8 8 7 7 8 8 8 8 9 9 9 9 9
13 12 11 9 8 6 5 5 5 6 7 7 8 8 7 7 9 8 7 7 7 7 7 7 7 8 7 7 8 8 8 8 8 8 8 8 8 8 9 9 9 10 10 10
13 12 12 11 10 8 6 6 7 6 7 8 9 9 7 7 7 8 7 6 6 7 7 7 8 7 7 7 7 7 8 8 8 8 8 8 9 9 9 9 9 10 10 10
14 13 12 11 10 9 7 6 6 6 7 9 9 10 7 7 8 8 7 7 6 8 8 8 9 7 7 7 7 7 8 9 9 8 8 9 10 10 10 10 10 10 10 10
13 13 12 10 11 10 9 8 7 7 9 10 9 10 9 7 7 6 6 7 8 8 8 8 9 8 8 7 8 8 8 9 9 9 9 10 10 11 11 11 11 11 11 11
13 13 11 11 10 12 11 10 8 8 8 9 9 9 10 8 8 8 7 8 8 9 9 8 9 8 8 8 8 9 9 9 9 10 10 10 11 11 12 12 13 13 13 12
13 12 12 12 10 10 10 11 10 9 9 9 10 10 10 8 9 9 8 9 11 10 8 9 8 8 9 9 10 9 9 10 10 11 11 11 12 12 13 13 13 13 13 13
15 14 13 12 12 12 13 12 11 11 12 12 11 12 11 10 11 11 9 10 12 11 9 9 8 8 8 9 10 10 10 11 12 12 12 12 13 13 14 14 14 14 14 14
18 18 17 15 15 14 15 14 13 13 13 13 13 13 11 12 11 11 11 11 12 13 10 9 10 10 10 10 11 11 11 12 13 13 13 13 14 14 15 15 15 15 15 15
21 21 19 18 17 15 15 16 16 15 15 15 15 14 13 14 12 12 12 13 15 14 12 11 11 11 10 11 11 12 12 12 13 13 14 14 15 15 15 16 15 15 16 16
22 22 22 20 18 19 17 17 18 17 16 16 16 15 13 13 12 12 13 14 13 14 13 13 12 12 12 12 13 13 13 13 13 14 15 15 15 16 16 16 16 16 17 17
23 23 22 21 21 20 20 19 18 19 18 17 17 16 15 14 13 13 14 14 15 14 13 13 13 13 13 14 13 13 14 14 15 15 16 16 16 17 17 17 18 18 18 18
22 22 23 23 23 23 22 20 20 21 20 20 19 17 16 16 15 14 15 15 15 14 14 15 15 15 15 13 13 14 15 15 15 16 17 17 18 18 18 19 20 20 20 20
24 24 23 23 24 24 25 23 22 22 22 22 20 19 18 17 17 17 16 16 16 16 15 15 16 15 15 15 15 15 16 16 16 17 18 18 19 19 20 21 21 21 21 21
25 25 25 25 25 25 25 25 24 22 22 22 22 20 19 18 19 19 19 19 18 17 17 17 17 17 18 18 18 17 17 17 18 18 19 19 20 21 21 22 22 22 22 23
27 27 26 26 26 27 27 26 24 23 23 24 23 22 21 20 20 20 20 20 20 18 19 19 19 19 20 20 19 19 19 20 20 21 21 22 22 23 23 23 23 23 23 23
29 29 29 28 28 29 27 25 25 24 24 24 23 22 22 23 24 23 22 22 22 21 20 20 20 21 21 21 22 21 21 21 22 22 23 24 24 25 25 25 24 24 24 23
30 30 30 29 29 29 28 27 26 26 27 26 24 23 24 24 25 25 25 24 25 24 24 23 23 23 23 23 24 23 23 24 25 25 25 25 26 26 26 26 26 25 25 25
30 30 30 30 30 30 29 28 28 28 29 27 27 26 26 27 28 27 27 27 27 27 27 26 26 25 25 25 26 26 27 27 27 26 26 27 27 27 27 27 27 27 26 26
31 30 30 30 30 29 29 29 28 30 29 29 29 29 28 29 29 28 28 28 28 29 29 28 28 28 28 28 28 28 28 28 28 27 27 27 27 28 28 28 28 28 28 27
32 32 31 31 30 30 29 29 29 29 29 30 30 30 30 29 28 29 30 30 30 29 30 30 30 29 29 30 30 29 29 29 29 28 28 28 29 29 29 29 29 30 29 28
31 32 32 32 32 30 30 31 30 29 30 31 31 31 31 30 30 30 31 31 31 31 31 31 31 31 30 31 30 30 29 29 28 28 29 29 30 30 30 31 31 31 30 29
32 33 32 32 31 30 30 31 30 30 29 29 30 30 31 30 30 30 30 31 31 31 32 32 32 32 32 32 31 30 29 29 29 29 30 30 30 30 30 31 31 31 31 31
32 33 33 33 32 30 30 30 30 30 29 29 30 31 31 31 31 30 30 30 31 32 33 32 32 32 33 32 32 31 30 29 30 30 31 31 30 31 31 31 31 31 31 31
31 31 31 32 32 31 31 30 30 30 30 30 30 30 30 31 31 31 31 31 32 33 32 32 32 32 32 31 31 31 30 30 29 29 29 30 30 30 31 31 31 31 31 31
Wind_Direction
198 195 190 182 175 170 177 210 331 336 340 340 348 347 356 6 11 5 3 15 12 12 15 21 24 20 20 19 16 21 18 17 18 18 18 16 10 6 5 5 6 5 359 354
201 196 195 198 198 202 219 248 305 318 315 311 325 333 345 341 353 356 358 6 9 2 5 12 13 13 11 12 11 10 6 6 7 8 7 5 2 359 358 356 356 356 355 351
207 201 205 201 195 211 233 246 269 301 312 313 320 324 325 330 339 342 345 352 9 8 7 10 9 8 3 2 358 356 355 353 354 354 354 355 355 351 348 346 342 341 343 343
209 207 214 210 206 211 229 242 259 282 294 300 302 310 310 318 328 330 340 347 4 7 360 4 4 2 357 353 352 348 347 344 343 343 344 344 346 345 341 338 336 335 336 334
209 212 217 218 212 215 232 241 250 265 285 294 297 299 309 313 324 325 336 344 347 353 351 348 350 353 347 344 348 345 340 337 336 338 338 337 337 338 336 332 331 331 330 327
215 219 220 220 218 218 225 237 244 259 276 285 292 292 294 303 311 313 333 343 334 339 340 336 339 341 347 339 335 335 334 336 334 333 332 331 332 333 331 329 328 327 323 320
217 221 221 218 219 222 226 234 243 263 270 275 280 285 296 298 301 300 309 328 331 324 328 322 323 330 332 331 327 327 330 329 327 328 326 326 326 327 328 325 323 320 318 315
221 222 226 222 220 223 227 234 243 262 270 272 276 284 290 289 299 299 309 329 330 316 314 321 316 321 322 325 327 326 326 326 324 322 320 320 320 321 321 320 318 315 314 313
231 228 226 227 231 233 234 235 241 257 269 274 276 281 285 292 300 305 311 325 329 321 318 315 312 314 313 321 323 322 323 321 320 318 315 314 315 318 318 317 314 313 311 309
236 233 227 224 227 236 238 236 240 251 266 275 277 280 284 296 298 305 308 314 322 322 315 316 315 314 309 312 315 315 316 317 317 316 315 311 313 314 314 316 313 312 311 308
236 235 229 226 228 234 236 236 241 251 262 272 276 279 283 287 292 308 313 313 318 316 312 309 306 306 302 303 306 310 312 314 314 314 312 312 311 312 311 311 311 309 310 310
236 238 234 229 228 232 233 241 242 244 252 262 270 278 278 285 290 297 306 310 310 316 313 309 301 300 299 300 304 309 312 314 313 312 311 311 310 310 310 310 310 309 308 307
238 237 235 230 228 232 235 241 243 242 249 258 267 274 278 280 285 292 300 300 306 312 313 308 300 301 299 298 300 303 307 310 310 311 311 312 312 311 310 310 310 308 306 304
237 238 236 230 231 234 237 241 242 244 250 254 260 267 271 276 278 286 293 292 299 306 308 307 305 300 299 300 301 302 300 303 307 308 309 311 312 313 312 311 309 307 304 302
233 236 236 233 233 237 240 243 245 246 251 258 263 268 271 275 279 283 285 290 296 299 301 302 302 299 297 296 297 299 297 299 303 303 305 307 309 310 310 309 308 307 306 304
234 237 238 237 236 238 241 245 247 247 249 255 261 266 267 270 277 280 284 286 290 292 295 295 299 300 296 295 295 296 297 299 300 299 301 303 304 306 307 307 305 305 303 303
238 240 240 239 239 241 241 246 249 250 250 254 258 263 264 266 271 276 283 285 287 287 287 291 295 296 299 295 289 291 297 299 299 299 300 302 304 305 305 306 305 305 303 302
238 241 241 241 242 242 244 248 248 251 254 256 258 261 262 265 269 273 280 283 284 288 287 289 290 294 294 293 291 293 294 295 296 296 298 300 301 302 303 303 303 303 302 302
238 240 243 244 246 247 246 249 250 250 253 256 260 262 263 265 270 274 275 279 281 284 287 289 290 291 291 291 292 294 294 292 294 294 296 298 299 300 301 301 301 302 302 302
237 239 243 245 249 249 247 248 249 250 253 256 260 263 265 268 270 274 276 278 280 284 288 288 289 290 291 290 290 290 293 292 293 294 294 295 297 299 299 300 300 300 300 300
238 241 245 246 249 251 248 248 248 249 252 257 260 264 266 268 270 272 274 276 278 282 284 286 286 287 288 289 288 291 292 292 294 294 294 294 295 295 297 298 298 297 297 297
240 242 246 246 248 250 250 251 252 255 254 257 261 263 265 268 270 271 272 274 277 280 282 284 285 287 288 289 290 291 291 291 292 293 292 293 292 292 293 295 296 297 295 295
241 244 246 248 250 252 252 253 255 256 255 257 261 264 267 269 271 274 275 274 276 277 279 281 284 286 288 289 290 290 289 289 289 290 291 292 292 291 292 294 295 295 296 295
240 243 246 248 252 253 254 255 255 255 255 258 260 263 267 271 273 276 277 276 277 277 279 281 284 286 288 289 290 289 288 288 289 291 293 293 292 292 293 294 294 294 294 295
242 244 247 249 253 255 255 254 255 256 258 260 261 265 268 270 272 274 275 275 276 278 279 281 284 286 287 288 289 290 287 287 289 290 291 291 291 293 294 294 295 295 295 296
242 245 247 249 251 252 254 256 256 257 259 262 265 266 269 271 273 274 275 275 277 278 279 281 283 284 285 286 288 287 288 288 288 289 290 291 291 292 293 294 294 295 296 296
Height
5908 5910 5911 5912 5913 5914 5914 5914 5914 5914 5913 5913 5913 5913 5911 5909 5909 5908 5907 5905 5904 5903 5902 5900 5899 5898 5897 5896 5894 5893 5892 5890 5889 5888 5887 5885 5884 5883 5881 5879 5877 5876 5874 5872
5907 5908 5910 5910 5911 5912 5912 5913 5913 5913 5912 5911 5911 5911 5911 5909 5909 5908 5907 5905 5904 5903 5902 5900 5899 5898 5897 5896 5895 5894 5892 5891 5889 5888 5887 5885 5884 5882 5881 5879 5877 5875 5874 5872
5905 5907 5907 5908 5909 5910 5911 5912 5912 5912 5911 5911 5910 5910 5910 5909 5908 5907 5906 5904 5903 5902 5901 5900 5899 5898 5897 5896 5895 5894 5892 5890 5889 5888 5886 5885 5883 5882 5880 5879 5877 5875 5873 5871
5902 5904 5905 5906 5907 5909 5909 5910 5911 5911 5910 5910 5910 5908 5908 5908 5907 5906 5905 5903 5902 5901 5901 5900 5899 5897 5896 5895 5894 5893 5891 5890 5888 5887 5885 5884 5883 5881 5879 5877 5876 5874 5872 5870
5900 5901 5902 5904 5905 5906 5907 5908 5908 5909 5909 5909 5908 5907 5907 5906 5906 5905 5903 5902 5901 5901 5900 5899 5897 5896 5895 5894 5893 5892 5890 5889 5887 5886 5884 5883 5881 5880 5878 5876 5874 5872 5871 5869
5897 5898 5900 5901 5903 5904 5905 5906 5906 5906 5906 5906 5906 5905 5905 5904 5904 5903 5901 5900 5900 5899 5898 5897 5896 5894 5894 5893 5892 5891 5889 5888 5886 5884 5883 5881 5880 5878 5876 5874 5872 5870 5868 5867
5894 5896 5897 5899 5900 5902 5902 5904 5904 5904 5903 5903 5903 5902 5903 5901 5901 5900 5899 5898 5897 5897 5896 5895 5894 5893 5892 5892 5890 5889 5887 5886 5883 5882 5881 5880 5878 5876 5874 5872 5870 5868 5866 5864
5891 5894 5895 5896 5897 5898 5899 5901 5901 5901 5900 5900 5900 5899 5900 5899 5898 5898 5897 5897 5896 5896 5895 5893 5892 5891 5891 5890 5888 5887 5885 5884 5882 5881 5879 5877 5876 5874 5872 5870 5867 5865 5863 5861
5888 5891 5892 5893 5894 5895 5897 5898 5898 5899 5898 5897 5897 5897 5896 5896 5896 5896 5896 5895 5894 5893 5891 5891 5890 5889 5888 5887 5886 5885 5883 5882 5880 5878 5876 5875 5873 5871 5869 5867 5864 5862 5860 5858
5883 5886 5888 5889 5890 5892 5894 5895 5896 5895 5895 5894 5894 5894 5894 5894 5894 5894 5894 5892 5891 5891 5889 5888 5887 5886 5885 5884 5883 5882 5881 5879 5878 5876 5874 5872 5870 5868 5866 5864 5861 5859 5857 5855
5878 5881 5883 5885 5887 5888 5890 5891 5891 5892 5892 5892 5891 5893 5891 5891 5891 5891 5891 5889 5888 5887 5886 5885 5884 5883 5882 5881 5881 5879 5878 5876 5875 5873 5871 5869 5866 5864 5862 5860 5858 5856 5854 5851
5873 5876 5878 5881 5882 5883 5885 5886 5886 5887 5888 5888 5888 5890 5887 5888 5888 5888 5887 5886 5885 5884 5882 5881 5881 5880 5879 5878 5877 5876 5875 5873 5872 5870 5868 5865 5863 5861 5859 5857 5854 5852 5850 5847
5868 5870 5873 5875 5879 5880 5880 5881 5882 5883 5884 5884 5884 5887 5884 5884 5884 5884 5884 5883 5881 5880 5879 5878 5878 5877 5876 5875 5874 5873 5872 5870 5868 5866 5864 5862 5859 5857 5855 5852 5850 5847 5845 5843
5863 5865 5868 5871 5872 5873 5874 5876 5877 5878 5879 5879 5879 5880 5880 5881 5881 5880 5880 5879 5879 5877 5876 5875 5875 5873 5872 5871 5870 5869 5868 5866 5864 5862 5860 5858 5855 5853 5850 5848 5845 5843 5840 5838
5857 5859 5861 5864 5866 5868 5869 5870 5872 5873 5874 5875 5875 5875 5876 5876 5876 5876 5876 5876 5875 5874 5874 5872 5871 5870 5869 5867 5866 5864 5863 5862 5860 5858 5856 5854 5851 5849 5846 5843 5840 5838 5835 5832
5851 5854 5856 5859 5861 5862 5863 5865 5866 5868 5869 5870 5870 5871 5871 5872 5872 5872 5872 5871 5870 5870 5869 5868 5867 5866 5865 5863 5861 5859 5858 5856 5855 5853 5851 5849 5846 5844 5842 5839 5836 5833 5830 5827
5846 5848 5850 5853 5854 5856 5858 5860 5861 5862 5863 5864 5865 5867 5866 5867 5867 5867 5867 5866 5865 5865 5865 5864 5863 5861 5860 5858 5856 5855 5853 5852 5850 5848 5846 5843 5841 5839 5836 5833 5830 5827 5824 5821
5840 5842 5844 5846 5849 5850 5854 5854 5855 5856 5857 5859 5860 5861 5861 5862 5862 5862 5862 5861 5860 5859 5859 5858 5857 5856 5854 5852 5851 5849 5848 5846 5845 5842 5840 5838 5835 5833 5830 5827 5824 5821 5818 5815
5834 5837 5839 5841 5842 5844 5847 5848 5849 5851 5851 5853 5854 5855 5855 5856 5856 5856 5856 5856 5855 5854 5853 5853 5851 5849 5847 5846 5845 5843 5841 5840 5838 5836 5834 5831 5829 5826 5824 5821 5818 5815 5812 5809
5828 5830 5833 5834 5836 5837 5841 5842 5843 5846 5845 5847 5848 5848 5849 5850 5850 5850 5850 5849 5849 5848 5847 5846 5844 5842 5841 5840 5838 5836 5835 5833 5831 5828 5826 5824 5822 5819 5817 5814 5811 5808 5805 5802
5821 5823 5825 5827 5828 5830 5834 5835 5837 5839 5840 5841 5841 5842 5843 5843 5844 5844 5843 5842 5842 5841 5840 5839 5837 5835 5834 5833 5831 5828 5827 5825 5823 5821 5819 5816 5814 5812 5809 5806 5804 5801 5797 5794
5814 5816 5818 5819 5821 5826 5827 5829 5830 5831 5832 5833 5834 5835 5835 5836 5837 5836 5836 5835 5834 5833 5832 5831 5829 5828 5826 5824 5822 5820 5818 5817 5815 5813 5811 5808 5806 5804 5801 5799 5796 5793 5789 5787
5806 5809 5811 5813 5816 5818 5820 5821 5823 5824 5825 5826 5827 5828 5828 5829 5829 5828 5828 5827 5826 5825 5824 5823 5821 5820 5818 5816 5814 5812 5810 5808 5806 5804 5802 5799 5797 5795 5792 5790 5788 5785 5782 5779
5799 5801 5803 5805 5807 5809 5812 5813 5815 5816 5817 5818 5819 5820 5821 5821 5820 5820 5820 5819 5818 5816 5816 5814 5813 5811 5809 5808 5805 5803 5801 5800 5797 5795 5793 5791 5789 5786 5784 5781 5779 5777 5774 5771
5791 5794 5795 5797 5799 5801 5803 5805 5806 5808 5809 5810 5811 5812 5812 5812 5812 5812 5812 5811 5809 5808 5807 5806 5804 5802 5801 5799 5797 5794 5792 5791 5789 5787 5785 5783 5780 5778 5775 5773 5771 5768 5765 5762
5784 5786 5788 5790 5792 5793 5795 5796 5798 5799 5801 5802 5803 5803 5804 5804 5803 5803 5803 5802 5801 5799 5798 5797 5795 5793 5791 5790 5788 5785 5784 5782 5780 5778 5776 5774 5772 5770 5767 5765 5762 5759 5756 5754